| time (UTC) | temp F | wind direction | speed MPH | gust MPH | rain 1hr in | rain 24hr in | rain mn in | humidity % | barometer mb |
| 20260504081558 | 56 | 215 | 4.0 | 8.0 | 0.00 | 0.00 | 0.00 | 45 | 989.5 |
| 20260504044527 | 57 | 229 | 4.0 | 8.0 | 0.00 | 0.00 | 0.00 | 44 | 993.2 |
| 20260504043037 | 57 | 229 | 2.0 | 7.0 | 0.00 | 0.00 | 0.00 | 44 | 993.5 |
| 20260504041523 | 58 | 229 | 3.0 | 6.0 | 0.00 | 0.00 | 0.00 | 41 | 993.7 |
| 20260504040024 | 59 | 229 | 3.0 | 6.0 | 0.00 | 0.00 | 0.00 | 39 | 994.0 |
| 20260504034518 | 59 | 229 | 4.0 | 6.0 | 0.00 | 0.00 | 0.00 | 38 | 994.3 |
| 20260504033015 | 60 | 229 | 2.0 | 6.0 | 0.00 | 0.00 | 0.00 | 36 | 994.5 |
| 20260504031514 | 60 | 229 | 2.0 | 6.0 | 0.00 | 0.00 | 0.00 | 36 | 994.8 |
| 20260504030016 | 61 | 229 | 2.0 | 6.0 | 0.00 | 0.00 | 0.00 | 35 | 994.9 |
| 20260504024514 | 62 | 229 | 2.0 | 6.0 | 0.00 | 0.00 | 0.00 | 34 | 994.9 |
| 20260504023012 | 62 | 229 | 2.0 | 5.0 | 0.00 | 0.00 | 0.00 | 34 | 995.1 |
| 20260504021514 | 63 | 229 | 1.0 | 4.0 | 0.00 | 0.00 | 0.00 | 33 | 995.1 |
| 20260504020010 | 64 | 229 | 1.0 | 4.0 | 0.00 | 0.00 | 0.00 | 31 | 995.1 |
| 20260504014509 | 65 | 229 | 1.0 | 4.0 | 0.00 | 0.00 | 0.00 | 29 | 995.2 |
| 20260504013009 | 66 | 229 | 1.0 | 4.0 | 0.00 | 0.00 | 0.00 | 27 | 995.4 |
| 20260504011517 | 67 | 229 | 1.0 | 7.0 | 0.00 | 0.00 | 0.00 | 26 | 995.4 |
| 20260504010007 | 67 | 229 | 1.0 | 10.0 | 0.00 | 0.00 | 0.00 | 25 | 995.3 |
| 20260504004506 | 68 | 266 | 3.0 | 8.0 | 0.00 | 0.00 | 0.00 | 25 | 995.5 |
| 20260504003006 | 69 | 360 | 3.0 | 7.0 | 0.00 | 0.00 | 0.00 | 26 | 995.5 |
| 20260504001505 | 69 | 244 | 2.0 | 9.0 | 0.00 | 0.00 | 0.00 | 25 | 995.5 |
| 20260504000004 | 69 | 270 | 4.0 | 9.0 | 0.00 | 0.00 | 0.00 | 24 | 995.6 |
| 20260503234506 | 71 | 317 | 3.0 | 8.0 | 0.00 | 0.00 | 0.00 | 23 | 995.6 |
| 20260503233004 | 71 | 246 | 3.0 | 7.0 | 0.00 | 0.00 | 0.00 | 24 | 995.6 |
| 20260503231502 | 70 | 290 | 2.0 | 8.0 | 0.00 | 0.00 | 0.00 | 24 | 996.0 |
| 20260503230002 | 70 | 45 | 4.0 | 9.0 | 0.00 | 0.00 | 0.00 | 24 | 995.9 |
| 20260503224600 | 70 | 318 | 4.0 | 10.0 | 0.00 | 0.00 | 0.00 | 23 | 996.0 |
| 20260503223100 | 70 | 336 | 4.0 | 8.0 | 0.00 | 0.00 | 0.00 | 25 | 996.2 |
| 20260503221605 | 70 | 348 | 6.0 | 10.0 | 0.00 | 0.00 | 0.00 | 24 | 996.0 |
| 20260503220121 | 70 | 344 | 5.0 | 13.0 | 0.00 | 0.00 | 0.00 | 25 | 996.0 |
| 20260503214558 | 70 | 27 | 6.0 | 12.0 | 0.00 | 0.00 | 0.00 | 26 | 996.2 |
| 20260503213058 | 70 | 330 | 4.0 | 9.0 | 0.00 | 0.00 | 0.00 | 26 | 996.4 |
| 20260503211555 | 69 | 355 | 4.0 | 13.0 | 0.00 | 0.00 | 0.00 | 27 | 996.3 |
| 20260503210053 | 69 | 342 | 4.0 | 9.0 | 0.00 | 0.00 | 0.00 | 29 | 996.6 |
| 20260503204551 | 68 | 321 | 6.0 | 16.0 | 0.00 | 0.00 | 0.00 | 28 | 996.8 |
| 20260503203054 | 68 | 346 | 7.0 | 11.0 | 0.00 | 0.00 | 0.00 | 28 | 996.9 |
| 20260503201548 | 68 | 332 | 6.0 | 16.0 | 0.00 | 0.00 | 0.00 | 29 | 997.0 |
| 20260503200046 | 68 | 334 | 5.0 | 11.0 | 0.00 | 0.00 | 0.00 | 29 | 997.2 |
| 20260503194545 | 67 | 299 | 6.0 | 12.0 | 0.00 | 0.00 | 0.00 | 29 | 997.3 |
| 20260503193046 | 67 | 355 | 6.0 | 12.0 | 0.00 | 0.00 | 0.00 | 30 | 997.3 |
| 20260503191541 | 67 | 311 | 7.0 | 13.0 | 0.00 | 0.00 | 0.00 | 32 | 997.4 |
| 20260503190046 | 66 | 287 | 6.0 | 13.0 | 0.00 | 0.00 | 0.00 | 33 | 997.5 |
| 20260503184542 | 66 | 334 | 8.0 | 14.0 | 0.00 | 0.00 | 0.00 | 33 | 997.6 |
| 20260503183037 | 66 | 313 | 7.0 | 13.0 | 0.00 | 0.00 | 0.00 | 34 | 997.7 |
| 20260503181535 | 65 | 29 | 7.0 | 12.0 | 0.00 | 0.00 | 0.00 | 37 | 997.8 |
| 20260503180044 | 65 | 28 | 5.0 | 11.0 | 0.00 | 0.00 | 0.00 | 37 | 997.8 |
| 20260503174535 | 65 | 308 | 8.0 | 14.0 | 0.00 | 0.00 | 0.00 | 38 | 997.9 |
| 20260503173030 | 65 | 28 | 6.0 | 11.0 | 0.00 | 0.00 | 0.00 | 40 | 998.0 |
| 20260503171530 | 65 | 319 | 6.0 | 12.0 | 0.00 | 0.00 | 0.00 | 42 | 998.1 |